カタログに戻る

STARLINK-36460

運用中通信VLEO
NORAD 67432·PAYLOAD·🇺🇸 United States

打ち上げ Jan 12, 2026 から Cape Canaveral Space Force Station

Loading…

次のパス (今後24時間)

TLE

最新Source: CelesTrak SupGP

元期: Sep 15, 2026, 03:11 UTC

1 67432C 26005AE  26258.13312500 -.00036133  00000+0 -13089-2 0  2581
2 67432  42.9991 248.5248 0001338 266.9141 123.5781 15.27591462    15

AllMySatでSTARLINK-36460をリアルタイム追跡

Download on the App Store